Regional Weather Roundup
Issued by NWS

Home | Current Version | Previous Version | Graphics & Text | Print | Product List | Glossary On
Versions: 1 2 3 4 5 6 7 8 9 10 11 12 13 14 15 16 17 18 19 20 21 22 23 24 25 26 27 28 29 30 31 32 33 34 35 36 37 38 39 40 41 42 43 44 45 46 47 48 49 50
000
ASUS44 KMEG 300910
RWRTN
TENNESSEE HOURLY STATE WEATHER ROUNDUP
NATIONAL WEATHER SERVICE MEMPHIS TN
400 AM CDT THU JUL 30 2015

TNZ002-004-019-021-049-052-054-088>092-301000-
WEST TENNESSEE

CITY           SKY/WX    TMP DP  RH WIND       PRES   REMARKS
MEMPHIS INTL   CLEAR     83  75  77 N7        30.03R HX  90
NWS MEMPHIS      N/A     81 N/A N/A MISG        N/A
JACKSON        CLEAR     79  75  87 N5        30.03R
DYERSBURG        N/A    N/A N/A N/A MISG        N/A
PARIS          PTCLDY    73  72  94 N6        30.06R
$$

TNZ008-025-027-028-033-062-065-066-301000-
NORTH MIDDLE TENNESSEE

CITY           SKY/WX    TMP DP  RH WIND       PRES   REMARKS
NASHVILLE      MOCLDY    77  74  90 NW7       30.03R
CLARKSVILLE    MOCLDY    75  71  87 N9        30.04R
SMYRNA         CLEAR     74  72  93 CALM      30.02S
CROSSVILLE     CLEAR     71  67  87 CALM      30.08R
$$

TNZ061-075-076-078-094-096-097-301000-
SOUTH MIDDLE TENNESSEE

CITY           SKY/WX    TMP DP  RH WIND       PRES   REMARKS
FAYETTEVILLE   CLEAR     75  73  94 N5        30.02R
TULLAHOMA      CLEAR     73  68  83 CALM      30.04S
WINCHESTER     CLEAR     73  72  94 CALM      30.02S
MCMINNVILLE    CLEAR     72  72 100 E5        30.03S
COLUMBIA       CLEAR     73  73 100 CALM      30.02R
SHELBYVILLE    CLEAR     75  75 100 SE3       30.03S
$$

TNZ017-018-042-046-047-301000-
NORTHEAST TENNESSEE

CITY           SKY/WX    TMP DP  RH WIND       PRES   REMARKS
TRI CITIES     MOCLDY    72  70  93 CALM      30.02S
ELIZABETHTON   PTSUNNY   72  70  94 CALM      30.03S
$$

TNZ012-013-036-069-073-074-301000-
CENTRAL EAST TENNESSEE

CITY           SKY/WX    TMP DP  RH WIND       PRES   REMARKS
KNOXVILLE      MOCLDY    78  73  84 VRB3      30.00R
OAK RIDGE      PTCLDY    77  73  87 CALM      30.01S
GATLINBURG     PTSUNNY   75  72  88 SW5       30.00S
MORRISTOWN     MOSUNNY   77  73  88 CALM      30.02R
$$

TNZ083-085-099-301000-
SOUTHEAST TENNESSEE

CITY           SKY/WX    TMP DP  RH WIND       PRES   REMARKS
CHATTANOOGA    CLEAR     77  74  90 CALM      29.99S
$$

SKY/WX REPORTED AS FAIR MEANS FEW OR NO CLOUDS BELOW
12 THOUSAND FEET.




USA.gov is the U.S. government's official web portal to all federal, state and local government web resources and services.